| time (UTC) | temp F | wind direction | speed MPH | gust MPH | rain 1hr in | rain 24hr in | rain mn in | humidity % | barometer mb |
| 20260504050532 | 41 | 0 | 0.0 | 2.0 | 0.00 | 0.00 | 0.00 | 72 | 1010.3 |
| 20260504045530 | 40 | 115 | 0.0 | 2.0 | 0.00 | 0.00 | 0.00 | 73 | 1010.4 |
| 20260504045031 | 40 | 164 | 0.0 | 1.0 | 0.00 | 0.00 | 0.00 | 73 | 1010.5 |
| 20260504044543 | 40 | 0 | 0.0 | 2.0 | 0.00 | 0.00 | 0.00 | 74 | 1010.5 |
| 20260504044029 | 40 | 0 | 0.0 | 2.0 | 0.00 | 0.00 | 0.00 | 74 | 1010.6 |
| 20260504043531 | 39 | 0 | 0.0 | 2.0 | 0.00 | 0.00 | 0.00 | 74 | 1010.7 |
| 20260504043042 | 39 | 0 | 0.0 | 2.0 | 0.00 | 0.00 | 0.00 | 74 | 1010.6 |
| 20260504042531 | 39 | 0 | 0.0 | 1.0 | 0.00 | 0.00 | 0.00 | 75 | 1010.7 |
| 20260504042030 | 39 | 0 | 0.0 | 0.0 | 0.00 | 0.00 | 0.00 | 74 | 1010.6 |
| 20260504041542 | 39 | 0 | 0.0 | 1.0 | 0.00 | 0.00 | 0.00 | 74 | 1010.9 |
| 20260504041028 | 39 | 0 | 0.0 | 1.0 | 0.00 | 0.00 | 0.00 | 74 | 1010.8 |
| 20260504040533 | 38 | 32 | 0.0 | 1.0 | 0.00 | 0.00 | 0.00 | 75 | 1010.8 |
| 20260504040103 | 38 | 0 | 0.0 | 1.0 | 0.00 | 0.00 | 0.00 | 72 | 1010.8 |
| 20260504035533 | 38 | 0 | 0.0 | 1.0 | 0.00 | 0.00 | 0.00 | 73 | 1010.8 |
| 20260504035031 | 38 | 32 | 0.0 | 2.0 | 0.00 | 0.00 | 0.00 | 75 | 1010.7 |
| 20260504034540 | 38 | 32 | 0.0 | 2.0 | 0.00 | 0.00 | 0.00 | 75 | 1010.8 |
| 20260504034032 | 38 | 0 | 0.0 | 1.0 | 0.00 | 0.00 | 0.00 | 75 | 1010.7 |
| 20260504033529 | 38 | 0 | 0.0 | 2.0 | 0.00 | 0.00 | 0.00 | 75 | 1010.7 |
| 20260504033046 | 38 | 0 | 0.0 | 2.0 | 0.00 | 0.00 | 0.00 | 75 | 1010.8 |
| 20260504032534 | 38 | 0 | 0.0 | 1.0 | 0.00 | 0.00 | 0.00 | 74 | 1010.7 |
| 20260504032032 | 37 | 32 | 0.0 | 2.0 | 0.00 | 0.00 | 0.00 | 74 | 1010.7 |
| 20260504031544 | 37 | 0 | 0.0 | 2.0 | 0.00 | 0.00 | 0.00 | 74 | 1010.9 |
| 20260504031028 | 37 | 0 | 0.0 | 2.0 | 0.00 | 0.00 | 0.00 | 74 | 1010.9 |
| 20260504030534 | 37 | 0 | 0.0 | 2.0 | 0.00 | 0.00 | 0.00 | 73 | 1010.9 |
| 20260504030041 | 37 | 0 | 0.0 | 0.0 | 0.00 | 0.00 | 0.00 | 73 | 1010.9 |
| 20260504025532 | 37 | 0 | 0.0 | 2.0 | 0.00 | 0.00 | 0.00 | 73 | 1010.8 |
| 20260504025033 | 37 | 0 | 0.0 | 2.0 | 0.00 | 0.00 | 0.00 | 72 | 1010.8 |
| 20260504024542 | 37 | 0 | 0.0 | 2.0 | 0.00 | 0.00 | 0.00 | 72 | 1010.8 |
| 20260504024033 | 37 | 0 | 0.0 | 2.0 | 0.00 | 0.00 | 0.00 | 72 | 1010.8 |
| 20260504023531 | 37 | 0 | 0.0 | 2.0 | 0.00 | 0.00 | 0.00 | 72 | 1010.7 |
| 20260504023054 | 37 | 32 | 0.0 | 2.0 | 0.00 | 0.00 | 0.00 | 72 | 1010.7 |
| 20260504022531 | 38 | 0 | 0.0 | 2.0 | 0.00 | 0.00 | 0.00 | 71 | 1010.6 |
| 20260504022028 | 38 | 32 | 0.0 | 1.0 | 0.00 | 0.00 | 0.00 | 72 | 1010.7 |
| 20260504021542 | 38 | 0 | 0.0 | 0.0 | 0.00 | 0.00 | 0.00 | 71 | 1010.7 |
| 20260504021031 | 38 | 0 | 0.0 | 0.0 | 0.00 | 0.00 | 0.00 | 72 | 1010.6 |
| 20260504020531 | 38 | 0 | 0.0 | 0.0 | 0.00 | 0.00 | 0.00 | 71 | 1010.7 |
| 20260504020041 | 38 | 0 | 0.0 | 0.0 | 0.00 | 0.00 | 0.00 | 71 | 1010.8 |
| 20260504015528 | 39 | 0 | 0.0 | 0.0 | 0.00 | 0.00 | 0.00 | 71 | 1010.6 |
| 20260504015032 | 39 | 0 | 0.0 | 0.0 | 0.00 | 0.00 | 0.00 | 70 | 1010.7 |
| 20260504014553 | 39 | 0 | 0.0 | 0.0 | 0.00 | 0.00 | 0.00 | 70 | 1010.7 |
| 20260504014031 | 39 | 0 | 0.0 | 0.0 | 0.00 | 0.00 | 0.00 | 70 | 1010.8 |
| 20260504013531 | 39 | 0 | 0.0 | 0.0 | 0.00 | 0.00 | 0.00 | 70 | 1010.7 |
| 20260504013046 | 39 | 0 | 0.0 | 0.0 | 0.00 | 0.00 | 0.00 | 68 | 1010.7 |
| 20260504012534 | 39 | 0 | 0.0 | 0.0 | 0.00 | 0.00 | 0.00 | 68 | 1010.6 |
| 20260504012031 | 39 | 0 | 0.0 | 0.0 | 0.00 | 0.00 | 0.00 | 67 | 1010.6 |
| 20260504011546 | 40 | 0 | 0.0 | 0.0 | 0.00 | 0.00 | 0.00 | 67 | 1010.6 |
| 20260504011028 | 40 | 0 | 0.0 | 0.0 | 0.00 | 0.00 | 0.00 | 66 | 1010.6 |
| 20260504010528 | 40 | 0 | 0.0 | 0.0 | 0.00 | 0.00 | 0.00 | 65 | 1010.4 |
| 20260504010051 | 40 | 0 | 0.0 | 0.0 | 0.00 | 0.00 | 0.00 | 65 | 1010.3 |
| 20260504005530 | 41 | 0 | 0.0 | 0.0 | 0.00 | 0.00 | 0.00 | 65 | 1010.4 |
| 20260504005031 | 41 | 0 | 0.0 | 0.0 | 0.00 | 0.00 | 0.00 | 63 | 1010.2 |
| 20260504004548 | 41 | 0 | 0.0 | 0.0 | 0.00 | 0.00 | 0.00 | 62 | 1010.3 |
| 20260504004028 | 42 | 0 | 0.0 | 0.0 | 0.00 | 0.00 | 0.00 | 62 | 1010.3 |
| 20260504003534 | 42 | 0 | 0.0 | 0.0 | 0.00 | 0.00 | 0.00 | 61 | 1010.3 |
| 20260504003047 | 43 | 0 | 0.0 | 0.0 | 0.00 | 0.00 | 0.00 | 60 | 1010.3 |
| 20260504002531 | 43 | 0 | 0.0 | 0.0 | 0.00 | 0.00 | 0.00 | 60 | 1010.2 |
| 20260504002028 | 43 | 0 | 0.0 | 1.0 | 0.00 | 0.00 | 0.00 | 59 | 1010.3 |
| 20260504001601 | 44 | 0 | 0.0 | 2.0 | 0.00 | 0.00 | 0.00 | 58 | 1010.2 |
| 20260504001032 | 44 | 31 | 0.0 | 2.0 | 0.00 | 0.00 | 0.00 | 57 | 1010.1 |
| 20260504000530 | 44 | 0 | 0.0 | 2.0 | 0.00 | 0.00 | 0.00 | 57 | 1010.0 |
| 20260504000101 | 45 | 350 | 0.0 | 3.0 | 0.00 | 0.00 | 0.00 | 56 | 1010.0 |
| 20260503235529 | 45 | 0 | 0.0 | 3.0 | 0.00 | 0.00 | 0.00 | 56 | 1010.0 |
| 20260503235029 | 45 | 174 | 1.0 | 3.0 | 0.00 | 0.00 | 0.00 | 55 | 1010.0 |
| 20260503234542 | 45 | 0 | 1.0 | 3.0 | 0.00 | 0.00 | 0.00 | 54 | 1010.0 |
| 20260503234029 | 46 | 292 | 1.0 | 4.0 | 0.00 | 0.00 | 0.00 | 53 | 1009.9 |
| 20260503233528 | 46 | 311 | 2.0 | 5.0 | 0.00 | 0.00 | 0.00 | 53 | 1009.9 |
| 20260503233041 | 46 | 301 | 2.0 | 5.0 | 0.00 | 0.00 | 0.00 | 52 | 1009.9 |
| 20260503232530 | 46 | 321 | 1.0 | 5.0 | 0.00 | 0.00 | 0.00 | 51 | 1009.9 |
| 20260503232027 | 46 | 284 | 2.0 | 5.0 | 0.00 | 0.00 | 0.00 | 50 | 1009.7 |
| 20260503231541 | 46 | 349 | 2.0 | 5.0 | 0.00 | 0.00 | 0.00 | 49 | 1009.8 |
| 20260503231032 | 47 | 298 | 0.0 | 3.0 | 0.00 | 0.00 | 0.00 | 49 | 1009.6 |
| 20260503230527 | 47 | 348 | 1.0 | 8.0 | 0.00 | 0.00 | 0.00 | 48 | 1009.6 |
| 20260503230048 | 47 | 271 | 2.0 | 8.0 | 0.00 | 0.00 | 0.00 | 47 | 1009.4 |
| 20260503225530 | 47 | 297 | 2.0 | 10.0 | 0.00 | 0.00 | 0.00 | 48 | 1009.4 |
| 20260503225033 | 47 | 287 | 1.0 | 10.0 | 0.00 | 0.00 | 0.00 | 46 | 1009.6 |
| 20260503224547 | 47 | 340 | 1.0 | 3.0 | 0.00 | 0.00 | 0.00 | 46 | 1009.5 |
| 20260503224028 | 47 | 234 | 1.0 | 3.0 | 0.00 | 0.00 | 0.00 | 44 | 1009.5 |
| 20260503223531 | 48 | 0 | 1.0 | 4.0 | 0.00 | 0.00 | 0.00 | 44 | 1009.4 |
| 20260503223048 | 48 | 306 | 1.0 | 5.0 | 0.00 | 0.00 | 0.00 | 43 | 1009.3 |
| 20260503222528 | 48 | 0 | 1.0 | 6.0 | 0.00 | 0.00 | 0.00 | 40 | 1009.4 |
| 20260503222027 | 49 | 280 | 1.0 | 6.0 | 0.00 | 0.00 | 0.00 | 42 | 1009.3 |
| 20260503221548 | 49 | 171 | 1.0 | 10.0 | 0.00 | 0.00 | 0.00 | 44 | 1009.5 |
| 20260503221028 | 48 | 304 | 2.0 | 10.0 | 0.00 | 0.00 | 0.00 | 41 | 1009.5 |
| 20260503220533 | 48 | 71 | 2.0 | 10.0 | 0.00 | 0.00 | 0.00 | 41 | 1009.3 |
| 20260503220049 | 48 | 96 | 2.0 | 9.0 | 0.00 | 0.00 | 0.00 | 41 | 1009.3 |
| 20260503215532 | 48 | 38 | 1.0 | 9.0 | 0.00 | 0.00 | 0.00 | 39 | 1009.4 |
| 20260503215031 | 49 | 325 | 3.0 | 7.0 | 0.00 | 0.00 | 0.00 | 40 | 1009.3 |
| 20260503214544 | 49 | 240 | 2.0 | 7.0 | 0.00 | 0.00 | 0.00 | 40 | 1009.4 |
| 20260503214030 | 49 | 296 | 2.0 | 7.0 | 0.00 | 0.00 | 0.00 | 39 | 1009.3 |
| 20260503213528 | 49 | 308 | 2.0 | 6.0 | 0.00 | 0.00 | 0.00 | 37 | 1009.3 |
| 20260503213041 | 49 | 250 | 2.0 | 5.0 | 0.00 | 0.00 | 0.00 | 37 | 1009.4 |
| 20260503212527 | 49 | 338 | 1.0 | 4.0 | 0.00 | 0.00 | 0.00 | 38 | 1009.1 |
| 20260503212031 | 49 | 350 | 1.0 | 8.0 | 0.00 | 0.00 | 0.00 | 36 | 1009.1 |
| 20260503211541 | 49 | 310 | 1.0 | 8.0 | 0.00 | 0.00 | 0.00 | 36 | 1009.2 |
| 20260503211029 | 49 | 338 | 1.0 | 8.0 | 0.00 | 0.00 | 0.00 | 35 | 1009.2 |
| 20260503210534 | 49 | 283 | 3.0 | 8.0 | 0.00 | 0.00 | 0.00 | 34 | 1009.1 |
| 20260503210045 | 49 | 307 | 3.0 | 9.0 | 0.00 | 0.00 | 0.00 | 36 | 1009.2 |
| 20260503205530 | 49 | 285 | 3.0 | 9.0 | 0.00 | 0.00 | 0.00 | 34 | 1009.2 |
| 20260503205031 | 49 | 299 | 2.0 | 8.0 | 0.00 | 0.00 | 0.00 | 34 | 1009.2 |
| 20260503204545 | 49 | 90 | 3.0 | 8.0 | 0.00 | 0.00 | 0.00 | 34 | 1009.1 |
| 20260503204034 | 49 | 69 | 3.0 | 10.0 | 0.00 | 0.00 | 0.00 | 35 | 1009.3 |
| 20260503203530 | 49 | 203 | 2.0 | 10.0 | 0.00 | 0.00 | 0.00 | 37 | 1009.4 |
| 20260503203051 | 49 | 301 | 3.0 | 10.0 | 0.00 | 0.00 | 0.00 | 35 | 1008.7 |
| 20260503202529 | 49 | 258 | 3.0 | 10.0 | 0.00 | 0.00 | 0.00 | 34 | 1009.2 |
| 20260503202029 | 50 | 348 | 2.0 | 7.0 | 0.00 | 0.00 | 0.00 | 35 | 1009.4 |
| 20260503201549 | 50 | 224 | 2.0 | 7.0 | 0.00 | 0.00 | 0.00 | 39 | 1009.5 |
| 20260503201030 | 48 | 32 | 1.0 | 6.0 | 0.00 | 0.00 | 0.00 | 38 | 1009.5 |
| 20260503200528 | 47 | 299 | 1.0 | 8.0 | 0.00 | 0.00 | 0.00 | 43 | 1009.5 |
| 20260503200041 | 47 | 219 | 3.0 | 8.0 | 0.00 | 0.00 | 0.00 | 37 | 1009.5 |
| 20260503195530 | 47 | 245 | 2.0 | 9.0 | 0.00 | 0.00 | 0.00 | 42 | 1009.5 |
| 20260503195034 | 47 | 215 | 3.0 | 10.0 | 0.00 | 0.00 | 0.00 | 38 | 1009.6 |
| 20260503194544 | 48 | 311 | 3.0 | 10.0 | 0.00 | 0.00 | 0.00 | 36 | 1009.8 |
| 20260503194030 | 49 | 338 | 3.0 | 10.0 | 0.00 | 0.00 | 0.00 | 35 | 1009.9 |
| 20260503193532 | 49 | 316 | 1.0 | 8.0 | 0.00 | 0.00 | 0.00 | 39 | 1010.0 |
| 20260503193049 | 49 | 299 | 2.0 | 11.0 | 0.00 | 0.00 | 0.00 | 37 | 1009.9 |
| 20260503192528 | 49 | 66 | 4.0 | 11.0 | 0.00 | 0.00 | 0.00 | 41 | 1010.0 |
| 20260503192031 | 49 | 352 | 2.0 | 7.0 | 0.00 | 0.00 | 0.00 | 39 | 1009.9 |
| 20260503191543 | 49 | 348 | 2.0 | 9.0 | 0.00 | 0.00 | 0.00 | 36 | 1009.8 |
| 20260503191031 | 49 | 315 | 2.0 | 11.0 | 0.00 | 0.00 | 0.00 | 38 | 1010.0 |
| 20260503190528 | 48 | 206 | 3.0 | 11.0 | 0.00 | 0.00 | 0.00 | 40 | 1010.2 |
| 20260503190043 | 48 | 5 | 2.0 | 9.0 | 0.00 | 0.00 | 0.00 | 43 | 1010.3 |
| 20260503185528 | 47 | 24 | 3.0 | 9.0 | 0.00 | 0.00 | 0.00 | 42 | 1009.9 |
| 20260503185028 | 47 | 194 | 2.0 | 12.0 | 0.00 | 0.00 | 0.00 | 40 | 1010.1 |
| 20260503184541 | 47 | 271 | 4.0 | 12.0 | 0.00 | 0.00 | 0.00 | 41 | 1010.1 |
| 20260503184030 | 46 | 304 | 4.0 | 9.0 | 0.00 | 0.00 | 0.00 | 44 | 1010.1 |
| 20260503183528 | 45 | 299 | 2.0 | 10.0 | 0.00 | 0.00 | 0.00 | 47 | 1010.1 |
| 20260503183100 | 44 | 227 | 3.0 | 10.0 | 0.00 | 0.00 | 0.00 | 43 | 1010.2 |
| 20260503182532 | 45 | 257 | 3.0 | 8.0 | 0.00 | 0.00 | 0.00 | 45 | 1010.1 |
| 20260503182028 | 45 | 295 | 2.0 | 8.0 | 0.00 | 0.00 | 0.00 | 43 | 1010.4 |
| 20260503181603 | 45 | 295 | 3.0 | 8.0 | 0.00 | 0.00 | 0.00 | 44 | 1010.2 |
| 20260503181031 | 44 | 352 | 2.0 | 8.0 | 0.00 | 0.00 | 0.00 | 50 | 1010.1 |
| 20260503180528 | 44 | 61 | 1.0 | 9.0 | 0.00 | 0.00 | 0.00 | 48 | 1010.1 |
| 20260503180042 | 43 | 67 | 1.0 | 12.0 | 0.00 | 0.00 | 0.00 | 50 | 1010.0 |
| 20260503175528 | 42 | 298 | 2.0 | 12.0 | 0.00 | 0.00 | 0.00 | 48 | 1010.3 |
| 20260503175028 | 42 | 41 | 2.0 | 9.0 | 0.00 | 0.00 | 0.00 | 50 | 1010.4 |
| 20260503174542 | 42 | 262 | 3.0 | 9.0 | 0.00 | 0.00 | 0.00 | 49 | 1010.4 |
| 20260503174028 | 42 | 227 | 2.0 | 10.0 | 0.00 | 0.00 | 0.00 | 50 | 1010.3 |
| 20260503173528 | 42 | 76 | 2.0 | 10.0 | 0.00 | 0.00 | 0.00 | 49 | 1010.5 |
| 20260503173053 | 42 | 321 | 2.0 | 10.0 | 0.00 | 0.00 | 0.00 | 52 | 1010.6 |
| 20260503172531 | 42 | 352 | 3.0 | 10.0 | 0.00 | 0.00 | 0.00 | 49 | 1010.4 |
| 20260503172034 | 42 | 82 | 3.0 | 10.0 | 0.00 | 0.00 | 0.00 | 50 | 1010.4 |
| 20260503171542 | 41 | 307 | 2.0 | 8.0 | 0.00 | 0.00 | 0.00 | 48 | 1010.5 |
| 20260503171028 | 41 | 36 | 1.0 | 6.0 | 0.00 | 0.00 | 0.00 | 50 | 1010.7 |
| 20260503170529 | 41 | 225 | 2.0 | 6.0 | 0.00 | 0.00 | 0.00 | 50 | 1010.4 |
| 20260503150527 | 39 | 350 | 2.0 | 9.0 | 0.00 | 0.00 | 0.00 | 55 | 1010.8 |
| 20260503131033 | 37 | 331 | 1.0 | 6.0 | 0.00 | 0.00 | 0.00 | 70 | 1011.2 |
| 20260503130527 | 36 | 321 | 1.0 | 6.0 | 0.00 | 0.00 | 0.00 | 71 | 1011.3 |
| 20260503110530 | 33 | 96 | 1.0 | 2.0 | 0.00 | 0.00 | 0.00 | 79 | 1010.1 |
| 20260503100103 | 0 | 0.0 | 0.0 | 0.00 | 0.00 | 0.00 | 1009.9 | ||
| 20260503081542 | 0 | 57 | 1.0 | 3.0 | 0.00 | 0.00 | 0.00 | 1009.9 | |
| 20260503081030 | 32 | 296 | 1.0 | 3.0 | 0.00 | 0.00 | 0.00 | 80 | 1009.9 |
| 20260503080532 | 32 | 32 | 1.0 | 3.0 | 0.00 | 0.00 | 0.00 | 80 | 1010.0 |
| 20260503072533 | 31 | 0 | 0.0 | 2.0 | 0.00 | 0.00 | 0.00 | 80 | 1010.0 |
| 20260503072032 | 31 | 0 | 0.0 | 3.0 | 0.00 | 0.00 | 0.00 | 81 | 1010.1 |
| 20260503071539 | 31 | 17 | 1.0 | 3.0 | 0.00 | 0.00 | 0.00 | 81 | 1010.0 |
| 20260503071032 | 31 | 0 | 0.0 | 2.0 | 0.00 | 0.00 | 0.00 | 81 | 1010.0 |
| 20260503070530 | 31 | 78 | 0.0 | 2.0 | 0.00 | 0.00 | 0.00 | 81 | 1010.0 |